Location: Newark
(29.9790°N, 31.1340°E)
Time: 01:13:36
(UTC+00:00)

Transit 2A Rocket - Pass Details

Date: 24 January 2020
Orbit: 591 x 912 km, 66.7° (Epoch: 27 February)

Event Time Altitude Azimuth Distance (km) Brightness Sun altitude
Rises 11:53:31 0° 349° (N) 3,066 7.7 34.5°
Reaches altitude 10° 11:56:06 10° 2° (N) 2,201 7.0 34.2°
Maximum altitude 12:00:22 27° 60° (ENE) 1,427 6.2 33.8°
Drops below altitude 10° 12:04:56 10° 117° (ESE) 2,376 7.6 33.2°
Sets 12:07:49 0° 129° (SE) 3,360 8.4 32.9°
